Location: Newark
(44.1667°N, 8.2500°E)
Time: 19:21:13
(UTC+00:00)

Vanguard 2 - Pass Details

Date: 09 December 2019
Orbit: 553 x 2938 km, 32.9° (Epoch: 28 January)

Event Time Altitude Azimuth Distance (km) Brightness Sun altitude
Exits shadow 03:36:30 41° 231° (SW) 3,812 10.6 -33.8°
Maximum altitude 03:43:21 56° 180° (S) 3,237 10.5 -32.6°
Drops below altitude 10° 03:58:11 10° 108° (ESE) 4,960 12.5 -29.9°
Sets 04:01:37 0° 104° (ESE) 5,706 13.1 -29.3°
